Regional Weather Roundup
Issued by NWS

Home | Current Version | Previous Version | Graphics & Text | Print | Product List | Glossary On
Versions: 1 2 3 4 5 6 7 8 9 10 11 12 13 14 15 16 17 18 19 20 21 22 23 24 25 26 27 28 29 30 31 32 33 34 35 36 37 38 39 40 41 42 43 44 45 46 47 48 49 50
000
ASUS45 KABQ 312101
RWRNM
NEW MEXICO REGIONAL WEATHER ROUNDUP
NATIONAL WEATHER SERVICE ALBUQUERQUE NM
300 PM MDT MON AUG 31 2015

NOTE: "FAIR" MEANS FEW OR NO CLOUDS BELOW 12,000 FEET AGL WITH NO
       SIGNIFICANT WEATHER OR OBSTRUCTIONS TO VISION.

      THIS PRODUCT IS RELEASED AS TWO VERSIONS.  ONE VERSION NEAR
      THE TOP OF THE HOUR CONTAINING PRELIMINARY DATA FROM ALBUQUERQUE
      AND OTHER STATIONS.  A FINAL VERSION WITH ADDITIONAL DATA IS
      ISSUED ABOUT 10 MINUTES AFTER THE HOUR.

NMZ501-503-504-510>518-312200-
NORTHWEST PLATEAU/NORTHCENTRAL MOUNTAINS

CITY           SKY/WX    TMP DP  RH WIND       PRES   REMARKS
FARMINGTON     FAIR      85  46  25 W12       30.14F
SANTA FE       PTSUNNY   87  43  21 NW14G24   30.17F
TAOS           FAIR      82  39  21 SW13G24   30.23F
ANGEL FIRE     FAIR      74  41  30 W12G21    30.32F

$$
NMZ402-403-502-505>509-312200-
WESTCENTRAL MOUNTAINS/SOUTHWEST MOUNTAINS

CITY           SKY/WX    TMP DP  RH WIND       PRES   REMARKS
GALLUP         FAIR      80  48  32 NW20      30.22F
GRANTS         PTSUNNY   77  46  33 W10       30.23F
SILVER CITY      N/A     86  48  26 W3        30.15F

$$
NMZ407-409-411-412-312200-
SOUTHERN DESERTS

CITY           SKY/WX    TMP DP  RH WIND       PRES   REMARKS
DEMING         FAIR      94  42  16 SE5       30.05F
HOLLOMAN AFB   FAIR      94  45  18 VRB6      30.01F
ALAMOGORDO     FAIR      93  45  18 NW3       30.04F
T OR C         FAIR      84  45  25 NW15      30.11F

$$
NMZ519>523-312200-
CENTRAL VALLEYS/CENTRAL HIGHLANDS

CITY           SKY/WX    TMP DP  RH WIND       PRES   REMARKS
ALBUQUERQUE    FAIR      89  44  20 VRB3      30.11F
DOUBLE EAGLE   PTSUNNY   88  46  23 W8        30.15F
MORIARTY ARPT  FAIR      89  38  17 NW8       30.17F
CLINES CORNERS PTSUNNY   81  45  28 W12G20    30.22F
BELEN          FAIR      89  43  20 W6        30.11F
SOCORRO        NOT AVBL

$$
NMZ524>526-539-540-312200-
SOUTHCENTRAL MOUNTAINS

CITY           SKY/WX    TMP DP  RH WIND       PRES   REMARKS
RUIDOSO        FAIR      81  43  26 MISG      30.25F

$$
NMZ527>531-312200-
NORTHEAST HIGHLANDS/NORTHEAST PLAINS

CITY           SKY/WX    TMP DP  RH WIND       PRES   REMARKS
LAS VEGAS      FAIR      80  49  33 N13       30.20F
RATON          PTSUNNY   78  46  32 N10G16    30.14F
CLAYTON        FAIR      86  54  33 SW10      30.03F

$$
NMZ532>537-312200-
EASTCENTRAL PLAINS

CITY           SKY/WX    TMP DP  RH WIND       PRES   REMARKS
TUCUMCARI      FAIR      96  49  20 S10       29.97F
CANNON AFB     FAIR      93  49  22 SW12G21   30.03F
CLOVIS AIRPORT FAIR      91  48  22 S23       30.04F

$$
NMZ028-029-538-312200-
SOUTHEAST PLAINS

CITY           SKY/WX    TMP DP  RH WIND       PRES   REMARKS
ROSWELL        FAIR      95  48  20 VRB7G22   30.00F
ARTESIA        FAIR      93  50  22 SE13G21   30.00F
CARLSBAD       NOT AVBL
HOBBS          SUNNY     90  43  19 SE9G20    30.06F


$$


USA.gov is the U.S. government's official web portal to all federal, state and local government web resources and services.